Miscellaneous Local Product
Issued by NWS Hastings, NE

Home | Current Version | Previous Version | Text Only | Print | Product List | Glossary On
Versions: 1 2 3 4 5 6 7 8 9 10 11 12 13 14 15 16 17 18 19 20 21 22 23 24 25 26 27 28 29 30 31 32 33 34 35 36 37 38 39 40 41 42 43 44 45 46 47 48 49 50
000
AXUS43 KGID 020310
MISGRI

GID CWA HOURLY WEATHER ROUNDUP
NATIONAL WEATHER SERVICE HASTINGS NE
1000 PM CDT WED OCT 01 2014

NOTE: "FAIR" INDICATES FEW OR NO CLOUDS BELOW 12,000 FEET WITH NO
SIGNIFICANT WEATHER AND/OR OBSTRUCTIONS TO VISIBILITY.

...SOUTH CENTRAL NEBRASKA...

CITY           SKY/WX    TMP DP  RH WIND       PRES   REMARKS
GRAND ISLAND   LGT RAIN  63  58  83 SW7       29.84R
HASTINGS       MOCLDY    60  56  86 E8        29.81S
KEARNEY        CLOUDY    63  55  77 NE13      29.82R VSB 1/4
ORD            PTCLDY    60  51  72 N5        29.82R
YORK           LGT RAIN  66  63  88 NE6       29.81R
AURORA         TSTM      65  60  84 NE5       29.81R
LEXINGTON      PTCLDY    62  54  76 E8        29.82R
HOLDREGE       PTCLDY    62  54  76 NE7       29.80S
HEBRON         PTCLDY    64  58  81 CALM      29.77R

...NEBRASKA PANHANDLE...

CITY           SKY/WX    TMP DP  RH WIND       PRES   REMARKS
CHADRON        CLOUDY    50  47  89 E6        29.99R
ALLIANCE       LGT RAIN  48  44  86 N8        30.00R
SCOTTSBLUFF    CLOUDY    48  45  89 NW5       30.01R
SIDNEY         LGT RAIN  46  44  93 NE10      30.01F

...WESTERN AND NORTH CENTRAL NEBRASKA...

CITY           SKY/WX    TMP DP  RH WIND       PRES   REMARKS
VALENTINE      CLOUDY    54  48  80 N5        29.93R
AINSWORTH      HVY RAIN  55  49  80 W8        29.93R
ONEILL         PTCLDY    58  51  78 N7        29.86R
BROKEN BOW     CLEAR     63  50  62 NE12      29.83R
IMPERIAL       RAIN      51  46  83 NW32G43   29.95R
NORTH PLATTE   MOCLDY    58  49  72 CALM      29.84R
MCCOOK         CLEAR     61  46  57 CALM      29.80R

...EASTERN NEBRASKA...

CITY           SKY/WX    TMP DP  RH WIND       PRES   REMARKS
NORFOLK        PTCLDY    63  53  70 CALM      29.82R
SO SIOUX CITY  CLEAR     62  60  93 CALM      29.80R
TEKAMAH        PTCLDY    64  61  90 CALM      29.78R
COLUMBUS       CLOUDY    68  57  68 NE3       29.83R
ALBION         MOCLDY    62  51  67 N6        29.82R
OMAHA EPPLEY   MOCLDY    66  61  84 E3        29.78S
OFFUTT AFB     PTCLDY    64  64 100 E6        29.77S
MILLARD        PTCLDY    64  63  96 CALM      29.78S FOG
LINCOLN        PTCLDY    66  61  84 N3        29.79R
NEBRASKA CITY  PTCLDY    64  64  99 NE3       29.78S
BEATRICE       MOCLDY    66  62  85 NE5       29.76S FOG
FALLS CITY     MOCLDY    69  66  90 E5        29.75R

...NORTHERN KANSAS...

CITY           SKY/WX    TMP DP  RH WIND       PRES   REMARKS
GOODLAND       MOCLDY    52  46  80 N20G29    29.92R
HILL CITY      CLEAR     64  55  72 CALM      29.77S
NORTON         CLEAR     57  45  62 N5        29.77
PHILLIPSBURG   CLEAR     64  55  72 NE5       29.78R
SMITH CENTER   CLEAR     63  55  77 N7        29.77S
BELOIT         MOCLDY    68  63  83 N6        29.74R
HAYS           PTCLDY    63  57  82 N6        29.77R
RUSSELL        CLEAR     66  61  84 N5        29.75R
CONCORDIA      PTCLDY    68  62  81 NE3       29.74S
SALINA         CLEAR     72  63  73 E10       29.73R
TOPEKA         CLOUDY    67  66  97 VRB3      29.74F



USA.gov is the U.S. government's official web portal to all federal, state and local government web resources and services.